Weather Roundup
Issued by NWS Chicago, IL

Home | Current Version | Previous Version | Graphics & Text | Print | Product List | Glossary On
Versions: 1 2 3 4 5 6 7 8 9 10 11 12 13 14 15 16 17 18 19 20 21 22 23 24 25 26 27 28 29 30 31 32 33 34 35 36 37 38 39 40 41 42 43 44 45 46 47 48 49 50
000
NZUS59 KLOT 042209
HRRLOT

CHICAGO AREA WEATHER ROUNDUP
NATIONAL WEATHER SERVICE CHICAGO/ROMEOVILLE IL
500 PM CDT FRI SEP 04 2015

NOTE: "FAIR" INDICATES FEW OR NO CLOUDS BELOW 12,000 FEET WITH NO
SIGNIFICANT WEATHER AND/OR OBSTRUCTIONS TO VISIBILITY.

* THESE STATIONS ARE NOT UNDER NWS QUALITY CONTROL. THEY ALSO MAY NOT
  REPORT WEATHER SUCH AS PRECIPITATION OR FOG.

ILZ005-006-012>014-019>023-042300-
NORTHEAST ILLINOIS

CITY           SKY/WX    TMP DP  RH WIND       PRES   REMARKS
OHARE          PTSUNNY   80  67  64 E8        30.01R HX  82
MIDWAY         PTSUNNY   79  67  66 E12       30.01R HX  81
AURORA         SUNNY     88  73  61 NW5       29.99F HX  95
LANSING*       SUNNY     78  68  72 E9        30.01S
JOLIET*        PTSUNNY   90  72  54 N5        29.98S HX  97
WAUKEGAN       MOSUNNY   71  66  84 NE7       30.02F
DUPAGE AIRPORT MOSUNNY   88  70  55 VRB3      29.99S HX  93
WHEELING       MOSUNNY   76  67  73 NE9       30.03R
KANKAKEE*      PTSUNNY   82  70  67 S14       30.00R HX  85
MORRIS*        SUNNY     89  70  52 CALM      29.97S HX  94
LEWIS AIRPORT* PTSUNNY   88  69  52 E10       29.99S HX  92
NORTHERLY IS     N/A     72  66  81 NE8         N/A
$$

WIZ051-052-058>065-066-070>072-042300-
SOUTHEAST WISCONSIN

CITY           SKY/WX    TMP DP  RH WIND       PRES   REMARKS
MILWAUKEE      PTSUNNY   71  65  81 E9        30.04R
KENOSHA*       MOSUNNY   74  66  76 E10       30.04R
RACINE*        CLOUDY    73  65  75 E8        30.05S
BURLINGTON     SUNNY     80  67  66 NE6       30.02S HX  82
WAUKESHA       MOSUNNY   75  66  73 E6        30.03S
WEST BEND      MOSUNNY   73  64  73 CALM      30.03S
$$

INZ001>003-010>013-019-020-042300-
NORTHWEST INDIANA

CITY           SKY/WX    TMP DP  RH WIND       PRES   REMARKS
GARY*          PTSUNNY   77  68  73 NE10      30.02S
MICHIGAN CITY* NOT AVBL
RENSSELAER*    NOT AVBL
VALPARAISO     CLOUDY    82  73  74 NE7       30.02S HX  87
$$

LMZ740>746-042300-
SOUTHERN LAKE MICHIGAN

STATION/POSITION TIME  SKY/WX   TEMP WIND        PRES    VSBY
                                AIR  DIR/SP/G
                 (UTC)          (F)  (DEG/KT/KT) (MB)    (MI)
HARRISON CRIB    2100            70   30/  6/  8   N/A
BURNHAM HARBOR   2200            72   30/  6/  9   N/A
CALUMET HARBOR   2100            73   30/  8/ 10   N/A
BURNS HARBOR     2100            73   50/ 11/ 13 1016.9S
MICHIGAN CITY    2100            71   20/  9/ 10   N/A
$$

ABBREVIATIONS USED IN REMARKS
   TC - TEMPERATURE IN CELSIUS
  WCI - WIND CHILL INDEX
   HX - HEAT INDEX
  VSB - VISIBILITY
$$



USA.gov is the U.S. government's official web portal to all federal, state and local government web resources and services.